EW8485 Weather Reports


Display with metric or nautical units.
time (UTC)temp
F
wind
direction
speed
MPH
gust
MPH
rain 1hr
in
rain 24hr
in
rain mn
in
humidity
%
barometer
mb
20260502152157 65 349 2.0 9.0 0.00 2.59 0.00 72 1016.6
20260502151926 65 41 3.0 12.0 0.00 2.59 0.00 73 1016.7
20260502151156 65 17 3.0 12.0 0.00 2.59 0.00 73 1016.7
20260502150653 64 43 3.0 10.0 0.00 2.59 0.00 74 1016.6
20260502150153 64 30 3.0 10.0 0.00 2.59 0.00 73 1016.6
20260502130130 57 319 1.0 5.0 0.00 2.68 0.00 90 1015.3
20260502123626 55 237 0.0 2.0 0.00 2.68 0.00 91 1015.1
20260502123125 55 326 0.0 5.0 0.00 2.69 0.00 91 1015.1
20260502122626 55 320 1.0 5.0 0.00 2.69 0.00 91 1014.9
20260502122127 55 330 1.0 4.0 0.00 2.69 0.00 92 1014.7
20260502121623 54 319 0.0 4.0 0.00 2.69 0.00 92 1014.5
20260502121121 54 356 0.0 4.0 0.00 2.69 0.00 93 1014.4
20260502120621 53 4 0.0 4.0 0.00 2.69 0.00 93 1014.4
20260502120122 53 28 0.0 3.0 0.00 2.70 0.00 93 1014.5
20260502115621 53 3 1.0 6.0 0.00 2.70 0.00 93 1014.5
20260502115121 53 15 1.0 6.0 0.00 2.70 0.00 93 1014.4
20260502114613 53 300 1.0 7.0 0.00 2.70 0.00 92 1014.4
20260502114114 53 302 1.0 7.0 0.00 2.70 0.00 92 1014.4
20260502113846 54 338 1.0 7.0 0.00 2.70 0.00 92 1014.2
20260502113115 54 302 2.0 6.0 0.00 2.70 0.00 92 1014.1
20260502112614 54 349 1.0 6.0 0.00 2.70 0.00 92 1014.0
20260502112114 54 5 1.0 7.0 0.00 2.70 0.00 92 1014.0
20260502111610 54 9 1.0 7.0 0.00 2.70 0.00 92 1013.9
20260502111341 54 313 0.0 4.0 0.00 2.70 0.00 92 1013.8
20260502110607 54 303 0.0 5.0 0.00 2.70 0.00 92 1013.8
20260502110108 54 314 0.0 5.0 0.00 2.70 0.00 92 1013.9
20260502105608 54 328 0.0 3.0 0.00 2.70 0.00 91 1014.0
20260502105108 54 354 0.0 3.0 0.00 2.70 0.00 91 1013.9
20260502104601 54 349 0.0 3.0 0.00 2.70 0.00 91 1013.8
20260502104100 54 343 0.0 2.0 0.00 2.70 0.00 91 1013.7
20260502103558 54 330 0.0 1.0 0.00 2.70 0.00 90 1013.7
20260502103056 54 330 0.0 2.0 0.00 2.70 0.00 90 1013.7
20260502102828 55 330 0.0 2.0 0.00 2.70 0.00 89 1013.6
20260502102322 55 12 0.0 5.0 0.00 2.70 0.00 89 1013.5
20260502101550 55 274 0.0 5.0 0.00 2.70 0.00 89 1013.3
20260502101321 55 81 0.0 4.0 0.00 2.71 0.00 90 1013.2
20260502100551 55 94 0.0 3.0 0.00 2.71 0.00 89 1013.1
20260502091035 56 60 2.0 6.0 0.00 2.73 0.00 90 1012.2
20260502090816 56 335 2.0 6.0 0.00 2.73 0.00 91 1012.2
20260502090536 56 40 2.0 6.0 0.00 2.73 0.00 90 1012.2
20260502071522 56 30 2.0 10.0 0.00 2.74 0.00 92 1012.0
20260502071017 56 326 2.0 9.0 0.00 2.74 0.00 92 1012.2
20260502070517 56 288 2.0 9.0 0.00 2.74 0.00 92 1012.1
20260502070018 56 93 3.0 10.0 0.00 2.74 0.00 92 1012.0
20260502065517 56 13 3.0 10.0 0.00 2.74 0.00 92 1012.0
20260502065017 56 319 2.0 9.0 0.00 2.74 0.00 92 1012.0
20260502064518 56 340 2.0 9.0 0.00 2.74 0.00 93 1011.9
20260502064012 56 338 1.0 4.0 0.00 2.74 0.00 93 1012.0
20260502063513 56 58 1.0 5.0 0.00 2.74 0.00 93 1011.9
20260502063019 57 326 1.0 7.0 0.00 2.74 0.00 94 1011.8
20260502063012 56 72 1.0 7.0 0.00 2.74 0.00 93 1011.9
20260502062012 57 346 1.0 14.0 0.00 2.74 0.00 94 1011.8
20260502061514 57 109 2.0 14.0 0.00 2.74 0.00 94 1011.7
20260502061009 57 51 2.0 8.0 0.00 2.74 0.00 94 1011.6
20260502060508 56 340 1.0 6.0 0.00 2.74 0.00 94 1011.6
20260502060008 57 49 1.0 7.0 0.00 2.75 0.00 94 1011.5
20260502055508 57 119 2.0 12.0 0.00 2.75 0.00 93 1011.6
20260502055009 56 350 2.0 12.0 0.00 2.76 0.00 93 1011.6
20260502054510 57 3 2.0 11.0 0.00 2.77 0.00 93 1011.6
20260502054236 57 46 2.0 11.0 0.00 2.78 0.00 94 1011.5
20260502053602 57 78 2.0 10.0 0.00 2.84 0.00 95 1011.5
20260502053548 57 19 2.0 8.0 0.00 2.81 0.00 94 1011.5
20260502053449 57 60 2.0 9.0 0.00 2.83 0.00 94 1011.5
20260502053336 56 56 3.0 11.0 0.00 2.84 0.00 94 1011.5
20260502053232 56 65 3.0 11.0 0.00 2.84 0.00 94 1011.5
20260502051506 57 78 2.0 10.0 0.00 2.84 0.00 95 1011.5
20260502050959 57 21 2.0 10.0 0.00 2.85 0.00 95 1011.6
20260502050458 57 349 2.0 9.0 0.00 2.85 0.00 95 1011.6
20260502045959 57 80 1.0 8.0 0.00 2.86 2.86 95 1011.6
20260502045459 57 44 1.0 8.0 0.00 2.86 2.86 96 1011.5
20260502044959 57 11 1.0 10.0 0.00 2.86 2.86 96 1011.4
20260502044457 57 12 2.0 10.0 0.00 2.86 2.86 96 1011.5
20260502043955 57 58 1.0 8.0 0.00 2.86 2.86 96 1011.4
20260502043454 57 89 1.0 9.0 0.00 2.86 2.86 96 1011.4
20260502042956 57 68 1.0 9.0 0.00 2.86 2.86 96 1011.4
20260502042453 57 41 1.0 8.0 0.00 2.86 2.86 96 1011.6
20260502041953 57 346 1.0 5.0 0.00 2.86 2.86 96 1011.5
20260502041719 56 355 1.0 8.0 0.00 2.86 2.86 96 1011.6
20260502040950 56 35 1.0 8.0 0.00 2.86 2.86 97 1011.4
20260502040448 56 312 1.0 6.0 0.00 2.87 2.86 97 1011.5
20260502035947 56 70 2.0 6.0 0.00 2.87 2.86 97 1011.4
20260502035719 56 109 2.0 14.0 0.00 2.87 2.86 97 1011.4
20260502034946 56 351 2.0 14.0 0.00 2.87 2.86 97 1011.2
20260502034444 57 60 2.0 9.0 0.00 2.87 2.86 97 1011.2
20260502033944 56 305 3.0 9.0 0.00 2.87 2.86 97 1011.2
20260502033444 56 96 3.0 10.0 0.00 2.87 2.86 97 1011.2
20260502032944 57 343 2.0 10.0 0.00 2.87 2.86 97 1011.1
20260502032717 57 58 2.0 8.0 0.00 2.87 2.86 97 1010.9
20260502031945 57 23 3.0 8.0 0.00 2.87 2.86 97 1010.7
20260502031445 57 321 2.0 9.0 0.00 2.87 2.86 97 1010.7
20260502030945 57 52 2.0 8.0 0.00 2.88 2.86 97 1010.3
20260502030938 57 338 2.0 9.0 0.00 2.88 2.86 97 1010.5
20260502025938 57 53 1.0 7.0 0.01 2.88 2.86 97 1010.2
20260502025439 58 26 1.0 7.0 0.01 2.88 2.86 97 1010.3
20260502025209 58 58 2.0 8.0 0.01 2.88 2.86 97 1009.9
20260502024436 58 6 2.0 8.0 0.02 2.88 2.86 97 1009.8
20260502023931 58 51 2.0 11.0 0.02 2.88 2.86 97 1009.7
20260502023430 58 222 2.0 11.0 0.02 2.88 2.86 98 1009.5
20260502023201 58 35 1.0 8.0 0.03 2.88 2.86 98 1009.3
20260502022430 58 356 1.0 4.0 0.03 2.88 2.86 98 1009.4
20260502021929 58 34 1.0 4.0 0.03 2.88 2.86 98 1009.3
20260502021429 58 127 1.0 4.0 0.03 2.88 2.86 98 1009.1
20260502021155 58 41 1.0 8.0 0.03 2.88 2.86 98 1009.2
20260502020424 58 352 2.0 8.0 0.03 2.88 2.86 98 1009.5
20260502015923 58 64 2.0 8.0 0.03 2.87 2.85 98 1009.4
20260502015424 58 358 1.0 8.0 0.04 2.87 2.85 98 1009.4
20260502014924 59 44 1.0 9.0 0.05 2.87 2.85 98 1009.4
20260502014424 59 354 1.0 9.0 0.04 2.86 2.84 98 1009.4
20260502014156 58 37 2.0 10.0 0.04 2.86 2.84 98 1009.5
20260502013421 58 13 2.0 10.0 0.05 2.86 2.84 98 1009.2
20260502012921 59 348 2.0 10.0 0.04 2.85 2.83 98 1009.0
20260502012420 59 34 2.0 10.0 0.04 2.85 2.83 97 1008.9
20260502011922 59 318 1.0 6.0 0.04 2.85 2.83 98 1009.1
20260502011419 59 303 1.0 6.0 0.05 2.85 2.83 98 1009.0
20260502010919 59 224 1.0 8.0 0.05 2.85 2.83 98 1008.5
20260502010415 59 358 1.0 8.0 0.06 2.85 2.83 98 1008.3
20260502005915 59 27 2.0 8.0 0.07 2.84 2.82 98 1008.3
20260502005412 59 316 2.0 8.0 0.11 2.83 2.81 97 1008.3
20260502004913 59 349 1.0 6.0 0.15 2.82 2.80 98 1008.3
20260502004411 59 19 2.0 10.0 0.21 2.82 2.80 98 1008.3
20260502003911 59 28 2.0 10.0 0.25 2.82 2.80 97 1008.2
20260502003408 59 323 1.0 8.0 0.24 2.81 2.80 98 1007.8
20260502002909 59 319 2.0 8.0 0.25 2.81 2.79 98 1007.8
20260502002640 60 290 1.0 6.0 0.25 2.81 2.79 97 1007.4
20260502001909 60 356 2.0 7.0 0.25 2.81 2.79 97 1007.2
20260502001407 60 27 2.0 11.0 0.25 2.80 2.78 97 1007.4
20260502000905 60 37 1.0 11.0 0.29 2.80 2.78 97 1007.6
20260502000405 60 10 1.0 6.0 0.31 2.79 2.77 97 1007.5
20260501235907 60 350 2.0 7.0 0.32 2.77 2.75 97 1007.5
20260501235406 60 309 2.0 9.0 0.30 2.72 2.72 97 1007.5
20260501234913 60 318 3.0 13.0 0.29 2.67 2.65 97 1007.5
20260501234405 60 124 3.0 13.0 0.33 2.61 2.60 97 1007.7
20260501233906 60 354 2.0 12.0 0.30 2.57 2.56 97 1007.3
20260501233407 60 11 2.0 12.0 0.30 2.57 2.55 97 1006.6
20260501233139 60 63 3.0 11.0 0.29 2.56 2.55 97 1006.4
20260501232405 60 64 3.0 11.0 0.29 2.56 2.54 97 1005.3
20260501232137 60 40 2.0 10.0 0.29 2.56 2.54 97 1005.7
20260501231406 60 45 2.0 10.0 0.28 2.55 2.53 97 1006.1
20260501230907 60 23 1.0 8.0 0.24 2.51 2.50 97 1006.4
20260501230402 61 6 2.0 8.0 0.20 2.47 2.46 97 1006.4
20260501225859 61 113 3.0 10.0 0.18 2.45 2.43 97 1006.4
20260501225400 61 53 3.0 10.0 0.15 2.42 2.41 97 1006.2
20260501224900 61 16 3.0 10.0 0.12 2.38 2.37 97 1005.8
20260501224631 61 55 2.0 9.0 0.02 2.28 2.27 97 1006.5
20260501223901 61 281 3.0 13.0 0.01 2.27 2.25 98 1006.5
20260501223626 61 63 3.0 13.0 0.02 2.27 2.25 97 1006.0
20260501222857 61 46 3.0 8.0 0.03 2.27 2.25 98 1006.1
20260501222626 61 45 3.0 12.0 0.03 2.27 2.25 98 1006.1
20260501221855 61 43 4.0 14.0 0.03 2.27 2.25 97 1005.9
20260501221356 61 60 3.0 14.0 0.03 2.27 2.25 97 1005.7
20260501220857 62 20 3.0 13.0 0.03 2.27 2.25 98 1005.7
20260501220351 62 24 3.0 13.0 0.03 2.27 2.25 98 1005.8
20260501215853 62 37 2.0 10.0 0.04 2.27 2.25 98 1006.2
20260501215353 62 340 2.0 10.0 0.04 2.27 2.25 98 1006.3
20260501214851 62 354 1.0 10.0 0.04 2.26 2.24 98 1006.3
20260501214352 62 309 1.0 8.0 0.10 2.26 2.24 98 1006.4
20260501213853 62 48 2.0 12.0 0.12 2.26 2.24 98 1006.5
20260501213348 62 27 2.0 12.0 0.13 2.25 2.23 98 1006.6
20260501212848 62 43 2.0 7.0 0.13 2.24 2.22 98 1006.2
20260501212349 62 319 2.0 12.0 0.14 2.24 2.22 98 1006.7
20260501212120 62 357 1.0 12.0 0.15 2.24 2.22 98 1006.8
20260501211349 62 46 0.0 4.0 0.17 2.24 2.22 98 1006.1
20260501210849 62 349 1.0 3.0 0.17 2.24 2.22 98 1006.2
20260501210349 62 85 1.0 5.0 0.19 2.24 2.22 98 1006.4
20260501205847 62 70 1.0 5.0 0.19 2.23 2.21 98 1005.8
20260501205348 62 54 2.0 6.0 0.19 2.23 2.21 98 1006.0
20260501204848 62 148 2.0 7.0 0.19 2.22 2.20 98 1005.4
20260501204349 63 51 2.0 8.0 0.14 2.16 2.16 98 1004.9
20260501203847 63 79 2.0 8.0 0.14 2.13 2.12 98 1005.4
20260501203346 63 352 2.0 13.0 0.18 2.12 2.10 98 1004.9
20260501202845 63 314 2.0 13.0 0.22 2.11 2.09 98 1004.8
20260501202342 63 121 2.0 7.0 0.31 2.10 2.08 98 1004.6
20260501201841 63 91 2.0 10.0 0.38 2.08 2.06 98 1004.8
20260501201340 63 329 2.0 10.0 0.45 2.07 2.05 98 1004.8
20260501200840 63 18 2.0 11.0 0.50 2.06 2.04 98 1005.2
20260501200334 63 83 3.0 11.0 0.52 2.05 2.04 98 1005.2
20260501195833 63 76 2.0 7.0 0.51 2.04 2.02 98 1004.8
20260501195334 63 55 1.0 3.0 0.52 2.04 2.02 98 1005.2
20260501194833 63 32 2.0 10.0 0.52 2.03 2.01 98 1005.4
20260501194333 63 41 4.0 10.0 0.52 2.02 2.01 98 1004.9
20260501193834 63 75 4.0 10.0 0.51 1.99 1.98 98 1004.6
20260501193334 63 71 4.0 11.0 0.47 1.94 1.92 97 1004.8
20260501192833 63 46 4.0 11.0 0.43 1.89 1.87 97 1004.5
20260501192336 63 65 2.0 10.0 0.35 1.79 1.79 97 1003.9
20260501191832 63 39 1.0 7.0 0.27 1.70 1.69 98 1004.7
20260501191326 63 307 1.0 7.0 0.20 1.62 1.60 97 1005.5
20260501190824 63 335 2.0 5.0 0.14 1.55 1.54 97 1005.4
20260501190325 63 1 2.0 8.0 0.15 1.53 1.52 97 1005.0
20260501190055 63 35 2.0 11.0 0.20 1.52 1.50 97 1004.8
20260501185324 63 40 2.0 11.0 0.26 1.51 1.50 97 1004.8
20260501184824 63 110 4.0 13.0 0.28 1.51 1.49 97 1004.6
20260501184321 63 63 5.0 13.0 0.26 1.49 1.48 97 1003.9
20260501183823 63 58 6.0 13.0 0.26 1.48 1.47 97 1004.5
20260501183552 63 96 6.0 13.0 0.25 1.47 1.45 97 1004.5
20260501183053 63 79 3.0 11.0 0.23 1.45 1.44 97 1004.5
20260501182322 63 47 2.0 8.0 0.23 1.44 1.42 98 1006.3
20260501181823 63 4 3.0 13.0 0.22 1.43 1.41 97 1006.6
20260501181322 63 30 6.0 14.0 0.22 1.42 1.40 97 1005.7
20260501181051 63 88 6.0 14.0 0.22 1.41 1.39 97 1005.0
20260501180318 63 28 4.0 14.0 0.20 1.38 1.37 97 1005.0
20260501175815 63 56 2.0 8.0 0.16 1.30 1.30 97 1005.9
20260501175317 63 318 1.0 11.0 0.17 1.24 1.23 97 1006.6
20260501174814 63 29 1.0 11.0 0.20 1.23 1.21 97 1006.3
20260501174314 64 19 1.0 7.0 0.21 1.23 1.21 97 1006.2
20260501173808 64 122 2.0 7.0 0.20 1.22 1.21 97 1006.0
20260501173308 64 127 2.0 6.0 0.20 1.22 1.20 97 1005.9
20260501173038 64 8 2.0 6.0 0.22 1.22 1.20 97 1005.7
20260501172537 64 7 1.0 7.0 0.22 1.21 1.19 97 1006.0
20260501171809 64 23 2.0 12.0 0.29 1.21 1.19 97 1006.0
20260501171308 63 51 2.0 12.0 0.63 1.20 1.18 97 1005.9
20260501170803 63 57 2.0 9.0 0.79 1.19 1.17 97 1005.8
20260501170302 63 72 2.0 9.0 0.87 1.17 1.16 97 1006.2
20260501165801 63 335 3.0 9.0 0.84 1.14 1.12 97 1006.4
20260501165306 63 53 2.0 9.0 0.78 1.07 1.06 97 1006.6
20260501164800 63 123 2.0 8.0 0.74 1.03 1.01 97 1007.3
20260501164259 63 308 2.0 7.0 0.73 1.02 1.00 97 1007.0
20260501163757 63 54 2.0 9.0 0.73 1.02 1.00 97 1006.6
20260501163256 63 36 2.0 9.0 0.73 1.02 1.00 97 1006.8
20260501162802 63 335 2.0 9.0 0.69 0.98 0.97 96 1007.5
20260501162756 63 354 1.0 9.0 0.71 1.00 0.99 96 1007.3
20260501161755 63 7 2.0 9.0 0.63 0.92 0.92 96 1007.8
20260501161255 64 345 2.0 9.0 0.28 0.57 0.58 95 1007.9
20260501160805 64 252 3.0 11.0 0.01 0.30 0.28 95 1008.1
20260501160756 64 25 3.0 11.0 0.05 0.34 0.36 95 1008.0
20260501155752 64 343 2.0 11.0 0.01 0.30 0.28 95 1007.4
20260501155250 64 308 1.0 5.0 0.00 0.29 0.27 95 1007.2
20260501154751 64 25 0.0 3.0 0.00 0.29 0.27 95 1007.0
20260501154522 64 32 1.0 11.0 0.00 0.29 0.27 95 1007.0